Date String (YYYY-MM-DD hh:mm:ss) UTC,Instrument flags,Ambient pressure (hPa),Sample flow (lpm),Bypass flow (lpm),Sample temperature (°C),Ambient temperature (°C),ASC tube jacket temperature (°C),LED temperature (°C),Box temperature (°C),Sample RH (%),Span deviation,Mass concentration (μg/m³),Mass concentration (μg/m³),Mass concentration (μg/m³)
DateTimeUTC,F1_M11,P_M11,Q1_M11,Q2_M11,T1_M11,T2_M11,T3_M11,T4_M11,T5_M11,U1_M11,ZSPAN_M11,X0_M11,X2_M11,X1_M11
2023-01-22 05:00:00,,0821.6,5.02,0.00,22.0,20.4,00.0,30.9,23.4,09.0,0000.0,0002.90,0001.55,0001.21
2023-01-22 05:01:00,,0821.7,5.00,0.00,21.9,20.3,00.0,30.9,23.4,09.3,0000.0,0002.77,0001.51,0001.20
2023-01-22 05:02:00,,0821.5,4.99,0.00,21.9,20.2,00.0,30.9,23.4,09.3,0000.0,0002.82,0001.50,0001.20
2023-01-22 05:03:00,,0821.6,5.02,0.00,21.9,21.1,00.0,30.8,23.6,09.1,0000.0,0002.80,0001.48,0001.19
2023-01-22 05:04:00,,0821.6,5.00,0.00,22.0,22.2,00.0,30.8,23.9,09.2,0000.0,0002.90,0001.50,0001.16
2023-01-22 05:05:00,,0821.6,4.99,0.00,22.2,22.7,00.0,30.9,24.2,09.5,0000.0,0002.95,0001.50,0001.14
2023-01-22 05:06:00,,0821.6,4.99,0.00,22.2,22.1,00.0,30.9,24.1,09.6,0000.0,0002.90,0001.47,0001.13
2023-01-22 05:07:00,,0821.6,4.99,0.00,22.2,21.5,00.0,30.9,23.9,09.3,0000.0,0003.68,0001.46,0001.12
2023-01-22 05:08:00,,0821.6,5.00,0.00,22.1,21.0,00.0,30.9,23.8,09.4,0000.0,0003.74,0001.48,0001.12
2023-01-22 05:09:00,,0821.6,5.00,0.00,22.1,20.8,00.0,30.9,23.7,09.3,0000.0,0003.70,0001.50,0001.11
2023-01-22 05:10:00,,0821.6,5.05,0.00,22.1,20.6,00.0,30.9,23.6,09.5,0000.0,0003.50,0001.50,0001.09
2023-01-22 05:11:00,,0821.7,5.00,0.00,22.0,20.4,00.0,30.9,23.5,09.4,0000.0,0003.54,0001.51,0001.08
2023-01-22 05:12:00,,0821.7,5.00,0.00,22.0,20.3,00.0,30.9,23.5,09.6,0000.0,0003.51,0001.50,0001.07
2023-01-22 05:13:00,,0821.7,5.01,0.00,21.9,20.3,00.0,30.9,23.5,09.5,0000.0,0003.46,0001.49,0001.04
2023-01-22 05:14:00,,0821.7,5.00,0.00,21.9,20.2,00.0,30.9,23.4,09.3,0000.0,0003.53,0001.50,0001.02
2023-01-22 05:15:00,,0821.8,5.00,0.00,21.9,20.9,00.0,30.9,23.6,09.4,0000.0,0003.53,0001.49,0001.01
2023-01-22 05:16:00,,0821.9,4.99,0.00,22.0,22.1,00.0,30.8,23.9,09.3,0000.0,0003.54,0001.44,0000.99
2023-01-22 05:17:00,,0821.8,4.99,0.00,22.2,22.8,00.0,30.9,24.1,09.3,0000.0,0003.50,0001.41,0000.96
2023-01-22 05:18:00,,0821.8,4.98,0.00,22.2,22.4,00.0,30.9,24.1,09.0,0000.0,0002.71,0001.40,0000.95
2023-01-22 05:19:00,,0821.8,4.99,0.00,22.2,21.9,00.0,30.9,24.0,08.9,0000.0,0002.49,0001.36,0000.93
2023-01-22 05:20:00,,0821.8,5.01,0.00,22.2,21.4,00.0,30.9,23.9,09.1,0000.0,0002.46,0001.33,0000.91
2023-01-22 05:21:00,,0821.8,5.00,0.00,22.1,21.0,00.0,30.9,23.8,09.1,0000.0,0002.28,0001.32,0000.91
2023-01-22 05:22:00,,0821.8,5.01,0.00,22.1,20.7,00.0,30.9,23.7,09.0,0000.0,0002.18,0001.28,0000.90
2023-01-22 05:23:00,,0821.7,5.00,0.00,22.1,20.5,00.0,30.9,23.6,09.0,0000.0,0002.16,0001.27,0000.89
2023-01-22 05:24:00,,0821.7,4.99,0.00,22.0,20.4,00.0,30.9,23.5,09.2,0000.0,0002.13,0001.24,0000.87
2023-01-22 05:25:00,,0821.7,4.99,0.00,22.0,20.3,00.0,30.9,23.5,09.1,0000.0,0002.11,0001.22,0000.86
2023-01-22 05:26:00,,0821.7,5.00,0.00,22.0,20.3,00.0,30.9,23.4,09.0,0000.0,0002.00,0001.18,0000.85
2023-01-22 05:27:00,,0821.8,4.99,0.00,21.9,20.1,00.0,30.9,23.4,09.0,0000.0,0001.91,0001.18,0000.85
2023-01-22 05:28:00,,0821.8,5.00,0.00,21.8,19.9,00.0,30.8,23.3,08.9,0000.0,0001.87,0001.17,0000.85
2023-01-22 05:29:00,,0822.0,5.01,0.00,21.9,20.9,00.0,30.8,23.5,09.0,0000.0,0001.86,0001.13,0000.84
2023-01-22 05:30:00,,0821.9,5.00,0.00,22.0,22.2,00.0,30.8,23.8,09.2,0000.0,0001.80,0001.11,0000.84
2023-01-22 05:31:00,,0822.0,5.00,0.00,22.1,22.9,00.0,30.8,24.1,09.2,0000.0,0001.80,0001.09,0000.82
2023-01-22 05:32:00,,0822.1,4.99,0.00,22.2,22.5,00.0,30.8,24.1,09.4,0000.0,0001.95,0001.14,0000.86
2023-01-22 05:33:00,,0822.1,5.01,0.00,22.2,22.1,00.0,30.9,24.1,09.5,0000.0,0002.24,0001.26,0000.98
2023-01-22 05:34:00,,0822.0,5.00,0.00,22.2,21.7,00.0,30.9,24.0,09.5,0000.0,0002.40,0001.45,0001.18
2023-01-22 05:35:00,,0822.0,5.00,0.00,22.2,21.3,00.0,30.9,23.9,09.4,0000.0,0002.70,0001.72,0001.45
2023-01-22 05:36:00,,0822.0,5.03,0.00,22.2,21.0,00.0,30.9,23.9,09.4,0000.0,0003.16,0002.06,0001.75
2023-01-22 05:37:00,,0822.0,4.99,0.00,22.1,20.7,00.0,30.9,23.8,09.6,0000.0,0003.79,0002.44,0002.08
2023-01-22 05:38:00,,0821.9,4.98,0.00,22.1,20.5,00.0,30.9,23.7,09.8,0000.0,0005.06,0002.82,0002.42
2023-01-22 05:39:00,,0821.9,4.98,0.00,22.1,20.4,00.0,30.9,23.7,10.0,0000.0,0005.53,0003.18,0002.80
2023-01-22 05:40:00,,0822.1,5.00,0.00,22.0,20.2,00.0,30.9,23.6,10.3,0000.0,0005.90,0003.42,0003.18
2023-01-22 05:41:00,,0822.1,5.00,0.00,22.0,20.1,00.0,30.8,23.5,10.8,0000.0,0006.63,0003.76,0003.48
2023-01-22 05:42:00,,0822.0,4.99,0.00,21.9,20.0,00.0,30.8,23.5,10.8,0000.0,0007.31,0004.12,0003.83
2023-01-22 05:43:00,,0822.0,5.00,0.00,21.9,20.4,00.0,30.8,23.5,10.1,0000.0,0007.56,0004.35,0004.05
2023-01-22 05:44:00,,0822.1,5.00,0.00,22.0,21.5,00.0,30.8,23.8,09.9,0000.0,0007.72,0004.50,0004.20
2023-01-22 05:45:00,,0822.1,5.00,0.00,22.1,22.5,00.0,30.8,24.1,10.1,0000.0,0007.97,0004.65,0004.35
2023-01-22 05:46:00,,0822.1,4.99,0.00,22.2,22.5,00.0,30.8,24.1,10.1,0000.0,0008.07,0004.78,0004.48
2023-01-22 05:47:00,,0822.1,5.00,0.00,22.2,22.0,00.0,30.9,24.1,10.2,0000.0,0008.13,0004.90,0004.60
2023-01-22 05:48:00,,0822.1,5.00,0.00,22.2,21.6,00.0,30.9,24.0,10.0,0000.0,0008.18,0005.01,0004.73
2023-01-22 05:49:00,,0822.1,4.99,0.00,22.2,21.3,00.0,30.9,23.9,10.0,0000.0,0007.79,0005.05,0004.78
2023-01-22 05:50:00,,0822.1,5.01,0.00,22.2,21.0,00.0,30.9,23.9,10.1,0000.0,0008.03,0005.14,0004.87
2023-01-22 05:51:00,,0822.1,5.01,0.00,22.2,20.9,00.0,30.9,23.8,10.0,0000.0,0008.27,0005.19,0004.90
2023-01-22 05:52:00,,0822.1,5.02,0.00,22.2,20.7,00.0,30.9,23.8,09.6,0000.0,0008.11,0005.07,0004.80
2023-01-22 05:53:00,,0822.1,4.99,0.00,22.2,20.7,00.0,30.9,23.8,09.6,0000.0,0007.94,0004.94,0004.70
2023-01-22 05:54:00,,0822.1,5.00,0.00,22.1,20.6,00.0,30.9,23.8,09.8,0000.0,0007.87,0004.89,0004.65
2023-01-22 05:55:00,,0822.0,5.00,0.00,22.1,20.6,00.0,30.9,23.8,10.5,0000.0,0007.96,0005.02,0004.76
2023-01-22 05:56:00,,0822.0,5.01,0.00,22.1,20.6,00.0,30.9,23.8,10.4,0000.0,0007.98,0005.08,0004.81
2023-01-22 05:57:00,,0821.9,5.00,0.00,22.1,20.6,00.0,30.9,23.8,09.9,0000.0,0008.02,0005.06,0004.78
2023-01-22 05:58:00,,0821.9,5.02,0.00,22.1,20.6,00.0,30.9,23.8,09.5,0000.0,0007.90,0004.95,0004.68
2023-01-22 05:59:00,,0822.0,5.01,0.00,22.1,20.6,00.0,30.9,23.8,09.3,0000.0,0008.04,0004.79,0004.53
